Regional Weather Roundup
Issued by NWS

Home | Current Version | Previous Version | Text Only | Print | Product List | Glossary Off
Versions: 1 2 3 4 5 6 7 8 9 10 11 12 13 14 15 16 17 18 19 20 21 22 23 24 25 26 27 28 29 30 31 32 33 34 35 36 37 38 39 40 41 42 43 44 45 46 47 48 49 50

000
ASUS43 KTOP 171859
RWRKS

WEATHER ROUNDUP FOR KANSAS
NATIONAL WEATHER SERVICE GOODLAND KS
100 PM CST WED DEC 17 2014

NOTE:  "FAIR" INDICATES FEW OR NO CLOUDS BELOW 12,000 FEET WITH NO
SIGNIFICANT WEATHER AND/OR OBSTRUCTIONS TO VISIBILITY.

KSZ001>006-013>018-027>032-041>047-172000-
NORTHWEST KANSAS

CITY           SKY/WX    TMP DP  RH WIND       PRES   REMARKS
GOODLAND       FOG       24  23  96 E6        30.04F VSB 1/4
HAYS           CLOUDY    30  19  64 E15       30.14F WCI  19
HILL CITY      CLOUDY    27  22  81 E10       30.15F WCI  17
RUSSELL        CLOUDY    30  24  78 E12       30.15F WCI  20
$$

KSZ061>065-074>080-084>089-172000-
SOUTHWEST KANSAS

CITY           SKY/WX    TMP DP  RH WIND       PRES   REMARKS
DODGE CITY     CLOUDY    34  27  75 SE21      30.07F WCI  22
ELKHART          N/A     49  28  44 SW15        N/A
GARDEN CITY    PTSUNNY   39  29  67 S13       30.02F WCI  31
GREAT BEND     CLOUDY    34  25  69 SE14      30.15F WCI  24
LIBERAL        CLOUDY    45  28  53 S15G21    30.02F
$$

KSZ066>073-081>083-090>101-172000-
SOUTHEAST KANSAS

CITY           SKY/WX    TMP DP  RH WIND       PRES   REMARKS
CHANUTE        CLOUDY    31  26  82 SE7       30.26F
COFFEYVILLE    CLOUDY    32  28  85 E5        30.26F
HUTCHINSON     CLOUDY    31  24  75 SE8       30.20F
MEDICINE LODGE   N/A     34  27  75 SE10      30.16F WCI  26
NEWTON         CLOUDY    28  21  74 SE12      30.21F WCI  18
PARSONS        CLOUDY    32  28  85 VRB3      30.26F
WICHITA INTL   CLOUDY    34  24  67 E8        30.20F
WICHITA JABRA  CLOUDY    31  24  75 E5        30.20F
WINFIELD       CLOUDY    34  27  75 E8        30.22F
$$

KSZ007>012-019>026-033>040-048>060-102>105-172000-
NORTHEAST KANSAS

CITY           SKY/WX    TMP DP  RH WIND       PRES   REMARKS
CONCORDIA      CLOUDY    26  19  74 E7        30.24F
EMPORIA        CLOUDY    28  24  85 SE7       30.25F
LAWRENCE       CLOUDY    28  20  71 E3        30.30F
MANHATTAN      CLOUDY    27  19  72 NE6       30.28F
OLATHE IND     FLURRIES  28  23  81 VRB3      30.28F
OLATHE EXE     CLOUDY    28  22  78 E3        30.27F
SALINA         CLOUDY    29  23  78 E7        30.24F
TOPEKA BILLARD CLOUDY    28  19  69 E3        30.30F
TOPEKA FORBES  CLOUDY    29  20  69 NE6       30.27F
$$



USA.gov is the U.S. government's official web portal to all federal, state and local government web resources and services.